| time (UTC) | temp C | wind direction | speed KPH | gust KPH | rain 1hr cm | rain 24hr cm | rain mn cm | humidity % | barometer mb |
| 20260504080116 | 12 | 206 | 4.8 | 6.4 | 0.00 | 0.00 | 0.00 | 48 | 1003.4 |
| 20260504050432 | 14 | 240 | 6.4 | 9.7 | 0.00 | 0.00 | 0.00 | 41 | 1005.7 |
| 20260504045929 | 14 | 251 | 4.8 | 6.4 | 0.00 | 0.00 | 0.00 | 40 | 1005.9 |
| 20260504045425 | 13 | 278 | 3.2 | 4.8 | 0.00 | 0.00 | 0.00 | 42 | 1005.9 |
| 20260504044922 | 14 | 171 | 3.2 | 4.8 | 0.00 | 0.00 | 0.00 | 41 | 1006.0 |
| 20260504044420 | 14 | 264 | 6.4 | 6.4 | 0.00 | 0.00 | 0.00 | 41 | 1006.0 |
| 20260504043917 | 14 | 153 | 4.8 | 4.8 | 0.00 | 0.00 | 0.00 | 41 | 1006.0 |
| 20260504043414 | 14 | 241 | 3.2 | 4.8 | 0.00 | 0.00 | 0.00 | 41 | 1006.1 |
| 20260504042911 | 15 | 177 | 3.2 | 3.2 | 0.00 | 0.00 | 0.00 | 41 | 1006.2 |
| 20260504042408 | 15 | 244 | 1.6 | 1.6 | 0.00 | 0.00 | 0.00 | 41 | 1006.1 |
| 20260504041904 | 15 | 348 | 1.6 | 1.6 | 0.00 | 0.00 | 0.00 | 40 | 1006.3 |
| 20260504041400 | 15 | 197 | 0.0 | 1.6 | 0.00 | 0.00 | 0.00 | 40 | 1006.6 |
| 20260504040856 | 15 | 242 | 0.0 | 0.0 | 0.00 | 0.00 | 0.00 | 40 | 1006.6 |
| 20260504040354 | 15 | 305 | 0.0 | 0.0 | 0.00 | 0.00 | 0.00 | 40 | 1006.6 |
| 20260504035849 | 15 | 277 | 0.0 | 1.6 | 0.00 | 0.00 | 0.00 | 40 | 1006.6 |
| 20260504035348 | 15 | 313 | 3.2 | 3.2 | 0.00 | 0.00 | 0.00 | 39 | 1006.7 |
| 20260504034844 | 15 | 202 | 0.0 | 1.6 | 0.00 | 0.00 | 0.00 | 39 | 1007.0 |
| 20260504034342 | 15 | 261 | 1.6 | 3.2 | 0.00 | 0.00 | 0.00 | 39 | 1006.8 |
| 20260504033838 | 15 | 230 | 3.2 | 4.8 | 0.00 | 0.00 | 0.00 | 39 | 1007.0 |
| 20260504033337 | 15 | 258 | 4.8 | 4.8 | 0.00 | 0.00 | 0.00 | 40 | 1007.2 |
| 20260504032832 | 15 | 284 | 0.0 | 0.0 | 0.00 | 0.00 | 0.00 | 39 | 1007.1 |
| 20260504032330 | 16 | 256 | 1.6 | 1.6 | 0.00 | 0.00 | 0.00 | 38 | 1007.3 |
| 20260504031827 | 16 | 275 | 1.6 | 1.6 | 0.00 | 0.00 | 0.00 | 39 | 1007.4 |
| 20260504031324 | 16 | 297 | 0.0 | 0.0 | 0.00 | 0.00 | 0.00 | 39 | 1007.4 |
| 20260504030820 | 16 | 316 | 0.0 | 1.6 | 0.00 | 0.00 | 0.00 | 38 | 1007.2 |
| 20260504030318 | 16 | 287 | 0.0 | 0.0 | 0.00 | 0.00 | 0.00 | 38 | 1007.4 |
| 20260504025813 | 16 | 257 | 0.0 | 0.0 | 0.00 | 0.00 | 0.00 | 37 | 1007.3 |
| 20260504025311 | 16 | 271 | 0.0 | 0.0 | 0.00 | 0.00 | 0.00 | 37 | 1007.2 |
| 20260504024807 | 16 | 251 | 0.0 | 0.0 | 0.00 | 0.00 | 0.00 | 36 | 1007.3 |
| 20260504024304 | 17 | 255 | 1.6 | 1.6 | 0.00 | 0.00 | 0.00 | 37 | 1007.4 |
| 20260504023801 | 17 | 271 | 1.6 | 1.6 | 0.00 | 0.00 | 0.00 | 37 | 1007.3 |
| 20260504023257 | 17 | 243 | 1.6 | 1.6 | 0.00 | 0.00 | 0.00 | 37 | 1007.5 |
| 20260504022753 | 17 | 227 | 0.0 | 1.6 | 0.00 | 0.00 | 0.00 | 37 | 1007.3 |
| 20260504022249 | 17 | 247 | 0.0 | 0.0 | 0.00 | 0.00 | 0.00 | 36 | 1007.3 |
| 20260504021746 | 18 | 225 | 0.0 | 1.6 | 0.00 | 0.00 | 0.00 | 35 | 1007.3 |
| 20260504021244 | 18 | 287 | 0.0 | 0.0 | 0.00 | 0.00 | 0.00 | 34 | 1007.3 |
| 20260504020741 | 18 | 305 | 1.6 | 1.6 | 0.00 | 0.00 | 0.00 | 33 | 1007.3 |
| 20260504020237 | 18 | 286 | 3.2 | 3.2 | 0.00 | 0.00 | 0.00 | 33 | 1007.4 |
| 20260504015733 | 18 | 279 | 3.2 | 3.2 | 0.00 | 0.00 | 0.00 | 33 | 1007.7 |
| 20260504015230 | 18 | 313 | 1.6 | 3.2 | 0.00 | 0.00 | 0.00 | 33 | 1007.4 |
| 20260504014725 | 18 | 314 | 1.6 | 1.6 | 0.00 | 0.00 | 0.00 | 33 | 1007.4 |
| 20260504014223 | 18 | 293 | 3.2 | 3.2 | 0.00 | 0.00 | 0.00 | 32 | 1007.6 |
| 20260504013720 | 18 | 252 | 1.6 | 3.2 | 0.00 | 0.00 | 0.00 | 32 | 1007.5 |
| 20260504013218 | 18 | 266 | 3.2 | 3.2 | 0.00 | 0.00 | 0.00 | 32 | 1007.6 |
| 20260504012714 | 19 | 282 | 1.6 | 3.2 | 0.00 | 0.00 | 0.00 | 31 | 1007.5 |
| 20260504012212 | 19 | 344 | 1.6 | 1.6 | 0.00 | 0.00 | 0.00 | 31 | 1007.4 |
| 20260504011709 | 20 | 336 | 4.8 | 4.8 | 0.00 | 0.00 | 0.00 | 31 | 1007.6 |
| 20260504011205 | 20 | 290 | 4.8 | 6.4 | 0.00 | 0.00 | 0.00 | 31 | 1007.7 |
| 20260504010701 | 20 | 310 | 4.8 | 6.4 | 0.00 | 0.00 | 0.00 | 30 | 1007.5 |
| 20260504010157 | 20 | 239 | 6.4 | 6.4 | 0.00 | 0.00 | 0.00 | 30 | 1007.9 |
| 20260504005654 | 20 | 280 | 4.8 | 4.8 | 0.00 | 0.00 | 0.00 | 29 | 1007.8 |
| 20260504005151 | 21 | 341 | 3.2 | 4.8 | 0.00 | 0.00 | 0.00 | 29 | 1007.8 |
| 20260504004649 | 21 | 285 | 8.0 | 9.7 | 0.00 | 0.00 | 0.00 | 28 | 1007.6 |
| 20260504004146 | 21 | 319 | 9.7 | 11.3 | 0.00 | 0.00 | 0.00 | 28 | 1008.0 |
| 20260504003642 | 21 | 213 | 8.0 | 9.7 | 0.00 | 0.00 | 0.00 | 28 | 1007.9 |
| 20260504003139 | 21 | 21 | 4.8 | 6.4 | 0.00 | 0.00 | 0.00 | 28 | 1007.9 |
| 20260504002635 | 21 | 275 | 9.7 | 11.3 | 0.00 | 0.00 | 0.00 | 27 | 1008.0 |
| 20260504002133 | 22 | 295 | 8.0 | 11.3 | 0.00 | 0.00 | 0.00 | 26 | 1008.1 |
| 20260504001631 | 21 | 354 | 3.2 | 6.4 | 0.00 | 0.00 | 0.00 | 27 | 1008.1 |
| 20260504001127 | 21 | 309 | 14.5 | 17.7 | 0.00 | 0.00 | 0.00 | 27 | 1008.1 |
| 20260504000624 | 21 | 306 | 3.2 | 4.8 | 0.00 | 0.00 | 0.00 | 27 | 1008.0 |
| 20260504000121 | 21 | 319 | 6.4 | 6.4 | 0.00 | 0.00 | 0.00 | 27 | 1008.2 |
| 20260503235620 | 21 | 324 | 8.0 | 16.1 | 0.00 | 0.00 | 0.00 | 26 | 1008.3 |
| 20260503235116 | 22 | 166 | 6.4 | 12.9 | 0.00 | 0.00 | 0.00 | 26 | 1008.0 |
| 20260503234614 | 22 | 253 | 9.7 | 12.9 | 0.00 | 0.00 | 0.00 | 26 | 1008.2 |
| 20260503234112 | 22 | 167 | 6.4 | 9.7 | 0.00 | 0.00 | 0.00 | 28 | 1008.2 |
| 20260503233609 | 22 | 304 | 4.8 | 4.8 | 0.00 | 0.00 | 0.00 | 27 | 1008.1 |
| 20260503233104 | 22 | 313 | 16.1 | 24.1 | 0.00 | 0.00 | 0.00 | 27 | 1007.9 |
| 20260503232601 | 22 | 17 | 16.1 | 22.5 | 0.00 | 0.00 | 0.00 | 27 | 1008.1 |
| 20260503232059 | 22 | 276 | 6.4 | 12.9 | 0.00 | 0.00 | 0.00 | 27 | 1007.9 |
| 20260503231556 | 22 | 307 | 12.9 | 17.7 | 0.00 | 0.00 | 0.00 | 27 | 1007.6 |
| 20260503231053 | 22 | 208 | 14.5 | 20.9 | 0.00 | 0.00 | 0.00 | 28 | 1007.6 |
| 20260503230549 | 22 | 345 | 11.3 | 14.5 | 0.00 | 0.00 | 0.00 | 27 | 1007.5 |
| 20260503230047 | 22 | 297 | 9.7 | 12.9 | 0.00 | 0.00 | 0.00 | 27 | 1007.5 |
| 20260503225544 | 22 | 253 | 12.9 | 14.5 | 0.00 | 0.00 | 0.00 | 27 | 1007.7 |
| 20260503225038 | 22 | 265 | 12.9 | 14.5 | 0.00 | 0.00 | 0.00 | 27 | 1007.7 |
| 20260503224536 | 22 | 309 | 6.4 | 6.4 | 0.00 | 0.00 | 0.00 | 27 | 1007.6 |
| 20260503224034 | 23 | 156 | 9.7 | 12.9 | 0.00 | 0.00 | 0.00 | 27 | 1007.6 |
| 20260503223532 | 22 | 300 | 11.3 | 16.1 | 0.00 | 0.00 | 0.00 | 27 | 1007.4 |
| 20260503223027 | 22 | 305 | 17.7 | 20.9 | 0.00 | 0.00 | 0.00 | 27 | 1007.3 |
| 20260503222525 | 22 | 291 | 8.0 | 11.3 | 0.00 | 0.00 | 0.00 | 28 | 1007.4 |
| 20260503222023 | 22 | 36 | 6.4 | 9.7 | 0.00 | 0.00 | 0.00 | 27 | 1007.4 |
| 20260503221521 | 22 | 313 | 17.7 | 24.1 | 0.00 | 0.00 | 0.00 | 27 | 1007.5 |
| 20260503221018 | 22 | 309 | 11.3 | 14.5 | 0.00 | 0.00 | 0.00 | 26 | 1007.4 |
| 20260503220514 | 22 | 350 | 12.9 | 16.1 | 0.00 | 0.00 | 0.00 | 27 | 1007.5 |
| 20260503220011 | 22 | 282 | 8.0 | 12.9 | 0.00 | 0.00 | 0.00 | 27 | 1007.4 |
| 20260503215509 | 22 | 205 | 8.0 | 12.9 | 0.00 | 0.00 | 0.00 | 27 | 1007.4 |
| 20260503215005 | 22 | 28 | 8.0 | 11.3 | 0.00 | 0.00 | 0.00 | 27 | 1007.6 |
| 20260503214504 | 23 | 351 | 6.4 | 12.9 | 0.00 | 0.00 | 0.00 | 26 | 1007.3 |
| 20260503214000 | 22 | 258 | 17.7 | 22.5 | 0.00 | 0.00 | 0.00 | 26 | 1007.7 |
| 20260503213459 | 23 | 87 | 4.8 | 6.4 | 0.00 | 0.00 | 0.00 | 26 | 1007.4 |
| 20260503212954 | 22 | 321 | 14.5 | 16.1 | 0.00 | 0.00 | 0.00 | 27 | 1007.4 |
| 20260503212452 | 23 | 307 | 16.1 | 22.5 | 0.00 | 0.00 | 0.00 | 26 | 1007.6 |
| 20260503211949 | 23 | 298 | 0.0 | 0.0 | 0.00 | 0.00 | 0.00 | 25 | 1007.5 |
| 20260503211447 | 22 | 43 | 17.7 | 20.9 | 0.00 | 0.00 | 0.00 | 24 | 1007.6 |
| 20260503210942 | 22 | 272 | 12.9 | 16.1 | 0.00 | 0.00 | 0.00 | 25 | 1007.5 |
| 20260503210440 | 22 | 246 | 6.4 | 6.4 | 0.00 | 0.00 | 0.00 | 26 | 1007.4 |
| 20260503205939 | 22 | 334 | 6.4 | 11.3 | 0.00 | 0.00 | 0.00 | 26 | 1007.4 |
| 20260503205437 | 22 | 358 | 12.9 | 22.5 | 0.00 | 0.00 | 0.00 | 25 | 1007.6 |
| 20260503204933 | 22 | 303 | 9.7 | 12.9 | 0.00 | 0.00 | 0.00 | 25 | 1007.7 |
| 20260503204430 | 22 | 282 | 24.1 | 27.4 | 0.00 | 0.00 | 0.00 | 26 | 1007.7 |
| 20260503203927 | 22 | 0 | 6.4 | 9.7 | 0.00 | 0.00 | 0.00 | 25 | 1007.8 |
| 20260503203425 | 22 | 257 | 17.7 | 24.1 | 0.00 | 0.00 | 0.00 | 25 | 1007.7 |
| 20260503202921 | 22 | 249 | 4.8 | 9.7 | 0.00 | 0.00 | 0.00 | 26 | 1007.7 |
| 20260503202420 | 22 | 325 | 6.4 | 9.7 | 0.00 | 0.00 | 0.00 | 26 | 1007.7 |
| 20260503201918 | 22 | 303 | 19.3 | 25.7 | 0.00 | 0.00 | 0.00 | 26 | 1007.7 |
| 20260503201415 | 22 | 303 | 16.1 | 16.1 | 0.00 | 0.00 | 0.00 | 28 | 1007.8 |
| 20260503200912 | 22 | 224 | 11.3 | 16.1 | 0.00 | 0.00 | 0.00 | 28 | 1007.8 |
| 20260503200408 | 22 | 265 | 14.5 | 22.5 | 0.00 | 0.00 | 0.00 | 27 | 1007.9 |
| 20260503195905 | 22 | 16 | 8.0 | 16.1 | 0.00 | 0.00 | 0.00 | 27 | 1007.8 |
| 20260503195402 | 22 | 15 | 12.9 | 16.1 | 0.00 | 0.00 | 0.00 | 26 | 1007.7 |
| 20260503194859 | 22 | 208 | 14.5 | 20.9 | 0.00 | 0.00 | 0.00 | 28 | 1007.8 |
| 20260503194355 | 23 | 297 | 11.3 | 20.9 | 0.00 | 0.00 | 0.00 | 26 | 1007.8 |
| 20260503193851 | 22 | 251 | 14.5 | 22.5 | 0.00 | 0.00 | 0.00 | 27 | 1007.6 |
| 20260503193347 | 22 | 347 | 4.8 | 6.4 | 0.00 | 0.00 | 0.00 | 26 | 1007.7 |
| 20260503192843 | 22 | 245 | 12.9 | 16.1 | 0.00 | 0.00 | 0.00 | 27 | 1007.6 |
| 20260503192339 | 22 | 342 | 12.9 | 14.5 | 0.00 | 0.00 | 0.00 | 26 | 1007.8 |
| 20260503191835 | 22 | 251 | 22.5 | 29.0 | 0.00 | 0.00 | 0.00 | 26 | 1007.9 |
| 20260503191332 | 23 | 36 | 9.7 | 11.3 | 0.00 | 0.00 | 0.00 | 26 | 1007.6 |
| 20260503190829 | 22 | 344 | 9.7 | 12.9 | 0.00 | 0.00 | 0.00 | 25 | 1007.9 |
| 20260503190326 | 22 | 355 | 14.5 | 17.7 | 0.00 | 0.00 | 0.00 | 26 | 1007.8 |
| 20260503185823 | 21 | 104 | 11.3 | 24.1 | 0.00 | 0.00 | 0.00 | 28 | 1007.9 |
| 20260503185319 | 22 | 337 | 9.7 | 16.1 | 0.00 | 0.00 | 0.00 | 28 | 1007.8 |
| 20260503184820 | 21 | 18 | 9.7 | 14.5 | 0.00 | 0.00 | 0.00 | 29 | 1007.8 |
| 20260503184316 | 22 | 314 | 6.4 | 9.7 | 0.00 | 0.00 | 0.00 | 30 | 1008.1 |
| 20260503183811 | 22 | 39 | 14.5 | 24.1 | 0.00 | 0.00 | 0.00 | 28 | 1008.0 |
| 20260503183309 | 21 | 46 | 12.9 | 17.7 | 0.00 | 0.00 | 0.00 | 29 | 1007.9 |
| 20260503182806 | 21 | 6 | 17.7 | 24.1 | 0.00 | 0.00 | 0.00 | 30 | 1007.8 |
| 20260503182306 | 22 | 13 | 9.7 | 16.1 | 0.00 | 0.00 | 0.00 | 30 | 1008.1 |
| 20260503181802 | 21 | 6 | 11.3 | 14.5 | 0.00 | 0.00 | 0.00 | 31 | 1007.9 |
| 20260503181259 | 21 | 4 | 14.5 | 24.1 | 0.00 | 0.00 | 0.00 | 31 | 1008.0 |
| 20260503180755 | 22 | 39 | 6.4 | 9.7 | 0.00 | 0.00 | 0.00 | 31 | 1008.1 |
| 20260503180254 | 21 | 30 | 8.0 | 11.3 | 0.00 | 0.00 | 0.00 | 32 | 1008.1 |
| 20260503175749 | 21 | 263 | 9.7 | 12.9 | 0.00 | 0.00 | 0.00 | 33 | 1008.0 |
| 20260503175248 | 21 | 0 | 11.3 | 12.9 | 0.00 | 0.00 | 0.00 | 32 | 1008.1 |
| 20260503174743 | 21 | 341 | 11.3 | 14.5 | 0.00 | 0.00 | 0.00 | 32 | 1008.0 |
| 20260503174242 | 20 | 28 | 9.7 | 16.1 | 0.00 | 0.00 | 0.00 | 34 | 1008.1 |
| 20260503173742 | 20 | 18 | 4.8 | 6.4 | 0.00 | 0.00 | 0.00 | 33 | 1008.3 |
| 20260503173238 | 20 | 331 | 19.3 | 25.7 | 0.00 | 0.00 | 0.00 | 34 | 1008.2 |
| 20260503172735 | 20 | 8 | 12.9 | 16.1 | 0.00 | 0.00 | 0.00 | 34 | 1008.1 |
| 20260503172232 | 20 | 354 | 17.7 | 25.7 | 0.00 | 0.00 | 0.00 | 35 | 1008.2 |
| 20260503171729 | 20 | 10 | 19.3 | 22.5 | 0.00 | 0.00 | 0.00 | 34 | 1008.2 |
| 20260503171226 | 20 | 11 | 8.0 | 12.9 | 0.00 | 0.00 | 0.00 | 36 | 1008.1 |
| 20260503170723 | 20 | 168 | 9.7 | 14.5 | 0.00 | 0.00 | 0.00 | 37 | 1008.0 |
| 20260503170220 | 20 | 124 | 6.4 | 9.7 | 0.00 | 0.00 | 0.00 | 36 | 1008.2 |
| 20260503160141 | 18 | 111 | 12.9 | 16.1 | 0.00 | 0.00 | 0.00 | 42 | 1007.8 |
| 20260503150611 | 16 | 349 | 9.7 | 12.9 | 0.00 | 0.00 | 0.00 | 44 | 1007.6 |
| 20260503150108 | 16 | 310 | 9.7 | 12.9 | 0.00 | 0.00 | 0.00 | 44 | 1007.5 |
| 20260503130956 | 12 | 216 | 8.0 | 11.3 | 0.00 | 0.00 | 0.00 | 49 | 1007.7 |
| 20260503130453 | 12 | 279 | 9.7 | 11.3 | 0.00 | 0.00 | 0.00 | 50 | 1007.8 |
| 20260503110337 | 10 | 166 | 0.0 | 1.6 | 0.00 | 0.00 | 0.00 | 51 | 1008.2 |
| 20260503090224 | 12 | 122 | 14.5 | 20.9 | 0.00 | 0.00 | 0.00 | 43 | 1010.4 |
| 20260503081151 | 12 | 163 | 9.7 | 12.9 | 0.00 | 0.00 | 0.00 | 44 | 1010.4 |
| 20260503080646 | 12 | 99 | 6.4 | 9.7 | 0.00 | 0.00 | 0.00 | 44 | 1010.5 |